Regional Weather Roundup
Issued by NWS

Home | Current Version | Previous Version | Text Only | Print | Product List | Glossary Off
Versions: 1 2 3 4 5 6 7 8 9 10 11 12 13 14 15 16 17 18 19 20 21 22 23 24 25 26 27 28 29 30 31 32 33 34 35 36 37 38 39 40 41 42 43 44 45 46 47 48 49 50

000
ASUS45 KABQ 161810
RWRNM
WEATHER ROUNDUP FOR NEW MEXICO
NATIONAL WEATHER SERVICE ALBUQUERQUE NM
1200 PM MDT TUE SEP 16 2014

NOTE: "FAIR" MEANS FEW OR NO CLOUDS BELOW 12,000 FEET AGL WITH NO
       SIGNIFICANT WEATHER OR OBSTRUCTIONS TO VISION.

      THIS PRODUCT IS RELEASED AS TWO VERSIONS.  ONE VERSION NEAR
      THE TOP OF THE HOUR CONTAINING PRELIMINARY DATA FROM ALBUQUERQUE
      AND OTHER STATIONS.  A FINAL VERSION WITH ADDITIONAL DATA IS
      ISSUED ABOUT 10 MINUTES AFTER THE HOUR.

NMZ501-503-504-510>518-161900-
NORTHWEST PLATEAU/NORTHCENTRAL MOUNTAINS

CITY           SKY/WX    TMP DP  RH WIND       PRES   REMARKS
FARMINGTON     SUNNY     75  51  43 VRB3      30.25F
6HR MIN TEMP:  56; 6HR MAX TEMP:  77;

LOS ALAMOS     MOSUNNY   67  52  58 E7        30.38F
SANTA FE       PTSUNNY   68  53  58 S7        30.34F
6HR MIN TEMP:  57; 6HR MAX TEMP:  68;

ANGEL FIRE     FAIR      70  37  30 CALM      30.42F

$$
NMZ402-403-502-505>509-161900-
WESTCENTRAL MOUNTAINS/SOUTHWEST MOUNTAINS

CITY           SKY/WX    TMP DP  RH WIND       PRES   REMARKS
GALLUP         CLOUDY    73  50  44 NE7       30.32F
6HR MIN TEMP:  52; 6HR MAX TEMP:  73;

GRANTS         LGT RAIN  66  57  72 SE13      30.36F
SILVER CITY    CLOUDY    66  59  77 E16       30.28F

$$
NMZ407-409-411-412-161900-
SOUTHERN DESERTS

CITY           SKY/WX    TMP DP  RH WIND       PRES   REMARKS
LORDSBURG      LGT RAIN  68  63  83 E14G21    30.18F
DEMING         LGT RAIN  67  64  90 NE13      30.21F
6HR MIN TEMP:  65; 6HR MAX TEMP:  67; 6HR PCP:  0.15;

LAS CRUCES     CLOUDY    69  65  88 E3        30.24F
HOLLOMAN AFB   PTSUNNY   69  65  87 NW3       30.22F
ALAMOGORDO     CLOUDY    68  64  88 NW7       30.23F
T OR C         LGT RAIN  67  63  87 NE6       30.26F
6HR MIN TEMP:  63; 6HR MAX TEMP:  68; 6HR PCP:  0.12;


$$
NMZ519>523-161900-
CENTRAL VALLEYS/CENTRAL HIGHLANDS

CITY           SKY/WX    TMP DP  RH WIND       PRES   REMARKS
ALBUQUERQUE    CLOUDY    70  58  65 W7        30.30F
6HR MIN TEMP:  64; 6HR MAX TEMP:  70;

DOUBLE EAGLE   PTSUNNY   70  57  64 S7        30.33F
MORIARTY ARPT  FAIR      67  56  67 SE7       30.35F
6HR MIN TEMP:  57; 6HR MAX TEMP:  67;

CLINES CORNERS CLOUDY    64  53  67 SW9       30.37F
6HR MIN TEMP:  55; 6HR MAX TEMP:  64;

BELEN          MOCLDY    71  58  64 S6        30.29F
6HR MIN TEMP:  64; 6HR MAX TEMP:  71;

SOCORRO        LGT RAIN  66  64  94 SE5       30.28F
6HR MIN TEMP:  63; 6HR MAX TEMP:  66; 6HR PCP:  0.26;


$$
NMZ524>526-539-540-161900-
SOUTHCENTRAL MOUNTAINS

CITY           SKY/WX    TMP DP  RH WIND       PRES   REMARKS
RUIDOSO        NOT AVBL

$$
NMZ527>531-161900-
NORTHEAST HIGHLANDS/NORTHEAST PLAINS

CITY           SKY/WX    TMP DP  RH WIND       PRES   REMARKS
LAS VEGAS      PTSUNNY   64  54  69 S17       30.35F
6HR MIN TEMP:  53; 6HR MAX TEMP:  68;

RATON          SUNNY     71  51  49 VRB3      30.29F
6HR MIN TEMP:  54; 6HR MAX TEMP:  71;

CLAYTON        SUNNY     76  57  51 S20G25    30.21F
6HR MIN TEMP:  52; 6HR MAX TEMP:  76;


$$
NMZ532>537-161900-
EASTCENTRAL PLAINS

CITY           SKY/WX    TMP DP  RH WIND       PRES   REMARKS
TUCUMCARI      CLOUDY    74  59  59 SW12      30.23F
6HR MIN TEMP:  62; 6HR MAX TEMP:  74;

CANNON AFB     PTSUNNY   73  61  66 W8        30.26F
6HR MIN TEMP:  61; 6HR MAX TEMP:  73;

CLOVIS AIRPORT   N/A     70  61  73 SW6       30.28F

$$
NMZ028-029-538-161900-
SOUTHEAST PLAINS

CITY           SKY/WX    TMP DP  RH WIND       PRES   REMARKS
ROSWELL        LGT RAIN  70  66  87 CALM      30.23F FOG
6HR MIN TEMP:  67; 6HR MAX TEMP:  69; 6HR PCP:  0.04;

CARLSBAD       LGT RAIN  71  71 100 N5        30.21F FOG
6HR MIN TEMP:  68; 6HR MAX TEMP:  71; 6HR PCP: TRACE;

HOBBS          LGT RAIN  68  68 100 CALM      30.25F FOG


$$



USA.gov is the U.S. government's official web portal to all federal, state and local government web resources and services.